カタログに戻る

COSMOS 1412

運用中軍事LEO
NORAD 13600·PAYLOAD·🇷🇺 Russia

打ち上げ Oct 2, 1982 から Baikonur Cosmodrome

Loading…

次のパス (今後24時間)

TLE

最新Source: Space-Track

元期: Sep 14, 2026, 15:15 UTC

1 13600U 82099A   26257.63569411 -.00000061  00000-0  25469-4 0  9993
2 13600  64.8130 126.5651 0058186 350.8328  40.9815 13.86387996212100

AllMySatでCOSMOS 1412をリアルタイム追跡

Download on the App Store